| time (UTC) | temp F | wind direction | speed MPH | gust MPH | rain 1hr in | rain 24hr in | rain mn in | humidity % | barometer mb |
| 20260905164904 | 95 | 358 | 4.0 | 9.0 | 0.00 | 0.00 | 0.00 | 59 | 1013.9 |
| 20260905164558 | 95 | 25 | 2.0 | 11.0 | 0.00 | 0.00 | 0.00 | 59 | 1014.2 |
| 20260905164404 | 95 | 102 | 4.0 | 11.0 | 0.00 | 0.00 | 0.00 | 60 | 1014.1 |
| 20260905163904 | 95 | 204 | 4.0 | 11.0 | 0.00 | 0.00 | 0.00 | 59 | 1014.0 |
| 20260905163602 | 95 | 340 | 3.0 | 8.0 | 0.00 | 0.00 | 0.00 | 59 | 1014.1 |
| 20260905163102 | 95 | 20 | 2.0 | 10.0 | 0.00 | 0.00 | 0.00 | 60 | 1014.3 |
| 20260905162832 | 94 | 229 | 3.0 | 11.0 | 0.00 | 0.00 | 0.00 | 60 | 1014.1 |
| 20260905162331 | 94 | 242 | 3.0 | 11.0 | 0.00 | 0.00 | 0.00 | 63 | 1014.1 |
| 20260905161831 | 93 | 307 | 4.0 | 8.0 | 0.00 | 0.00 | 0.00 | 62 | 1014.2 |
| 20260905161606 | 93 | 202 | 3.0 | 8.0 | 0.00 | 0.00 | 0.00 | 63 | 1014.4 |
| 20260905161329 | 93 | 177 | 3.0 | 9.0 | 0.00 | 0.00 | 0.00 | 64 | 1014.3 |
| 20260905160829 | 93 | 274 | 4.0 | 9.0 | 0.00 | 0.00 | 0.00 | 63 | 1014.3 |
| 20260905160329 | 93 | 60 | 3.0 | 8.0 | 0.00 | 0.00 | 0.00 | 65 | 1014.3 |
| 20260905160058 | 93 | 51 | 3.0 | 8.0 | 0.00 | 0.00 | 0.00 | 64 | 1014.6 |
| 20260905155829 | 93 | 278 | 3.0 | 7.0 | 0.00 | 0.00 | 0.00 | 66 | 1014.2 |
| 20260905155328 | 92 | 354 | 3.0 | 8.0 | 0.00 | 0.00 | 0.00 | 66 | 1014.4 |
| 20260905154829 | 92 | 70 | 3.0 | 8.0 | 0.00 | 0.00 | 0.00 | 66 | 1014.3 |
| 20260905154602 | 92 | 3 | 3.0 | 8.0 | 0.00 | 0.00 | 0.00 | 67 | 1014.5 |
| 20260905154329 | 92 | 202 | 4.0 | 8.0 | 0.00 | 0.00 | 0.00 | 67 | 1014.3 |
| 20260905153829 | 91 | 345 | 3.0 | 7.0 | 0.00 | 0.00 | 0.00 | 69 | 1014.3 |
| 20260905153329 | 91 | 347 | 3.0 | 10.0 | 0.00 | 0.00 | 0.00 | 70 | 1014.5 |
| 20260905153100 | 90 | 294 | 2.0 | 10.0 | 0.00 | 0.00 | 0.00 | 70 | 1014.7 |
| 20260905152829 | 90 | 4 | 4.0 | 10.0 | 0.00 | 0.00 | 0.00 | 71 | 1014.5 |
| 20260905152328 | 89 | 210 | 4.0 | 6.0 | 0.00 | 0.00 | 0.00 | 71 | 1014.6 |
| 20260905151831 | 89 | 146 | 2.0 | 6.0 | 0.00 | 0.00 | 0.00 | 72 | 1014.7 |
| 20260905151602 | 89 | 217 | 2.0 | 10.0 | 0.00 | 0.00 | 0.00 | 72 | 1014.9 |
| 20260905151330 | 89 | 18 | 2.0 | 10.0 | 0.00 | 0.00 | 0.00 | 73 | 1014.6 |
| 20260905150830 | 89 | 13 | 4.0 | 10.0 | 0.00 | 0.00 | 0.00 | 72 | 1014.6 |
| 20260905150331 | 89 | 271 | 3.0 | 9.0 | 0.00 | 0.00 | 0.00 | 73 | 1014.7 |
| 20260905150059 | 88 | 41 | 4.0 | 10.0 | 0.00 | 0.00 | 0.00 | 74 | 1014.8 |
| 20260905145830 | 89 | 316 | 4.0 | 9.0 | 0.00 | 0.00 | 0.00 | 75 | 1014.5 |
| 20260905145330 | 88 | 28 | 4.0 | 9.0 | 0.00 | 0.00 | 0.00 | 75 | 1014.5 |
| 20260905145054 | 88 | 291 | 2.0 | 7.0 | 0.00 | 0.00 | 0.00 | 77 | 1014.5 |
| 20260905144555 | 87 | 141 | 3.0 | 8.0 | 0.00 | 0.00 | 0.00 | 77 | 1014.6 |
| 20260905144329 | 87 | 155 | 3.0 | 7.0 | 0.00 | 0.00 | 0.00 | 78 | 1014.5 |
| 20260905143829 | 87 | 100 | 4.0 | 8.0 | 0.00 | 0.00 | 0.00 | 78 | 1014.5 |
| 20260905143328 | 87 | 62 | 3.0 | 8.0 | 0.00 | 0.00 | 0.00 | 79 | 1014.4 |
| 20260905143105 | 86 | 189 | 3.0 | 9.0 | 0.00 | 0.00 | 0.00 | 79 | 1014.6 |
| 20260905142829 | 86 | 64 | 3.0 | 8.0 | 0.00 | 0.00 | 0.00 | 79 | 1014.4 |
| 20260905142328 | 86 | 340 | 3.0 | 9.0 | 0.00 | 0.00 | 0.00 | 79 | 1014.3 |
| 20260905141830 | 86 | 259 | 4.0 | 9.0 | 0.00 | 0.00 | 0.00 | 81 | 1014.2 |
| 20260905141603 | 85 | 198 | 2.0 | 10.0 | 0.00 | 0.00 | 0.00 | 81 | 1014.5 |
| 20260905141331 | 85 | 105 | 3.0 | 8.0 | 0.00 | 0.00 | 0.00 | 81 | 1014.2 |
| 20260905140829 | 85 | 155 | 3.0 | 7.0 | 0.00 | 0.00 | 0.00 | 81 | 1014.3 |
| 20260905140329 | 85 | 299 | 3.0 | 8.0 | 0.00 | 0.00 | 0.00 | 82 | 1014.3 |
| 20260905140059 | 85 | 312 | 2.0 | 9.0 | 0.00 | 0.00 | 0.00 | 82 | 1014.4 |
| 20260905135829 | 85 | 243 | 4.0 | 9.0 | 0.00 | 0.00 | 0.00 | 83 | 1014.1 |
| 20260905135329 | 85 | 7 | 3.0 | 9.0 | 0.00 | 0.00 | 0.00 | 83 | 1014.2 |
| 20260905134831 | 85 | 271 | 3.0 | 9.0 | 0.00 | 0.00 | 0.00 | 83 | 1014.1 |
| 20260905134557 | 84 | 1 | 2.0 | 10.0 | 0.00 | 0.00 | 0.00 | 83 | 1014.2 |
| 20260905134331 | 84 | 172 | 4.0 | 9.0 | 0.00 | 0.00 | 0.00 | 83 | 1013.9 |
| 20260905134057 | 84 | 311 | 2.0 | 6.0 | 0.00 | 0.00 | 0.00 | 84 | 1013.9 |
| 20260905133329 | 84 | 302 | 2.0 | 6.0 | 0.00 | 0.00 | 0.00 | 84 | 1013.9 |
| 20260905133102 | 83 | 294 | 2.0 | 6.0 | 0.00 | 0.00 | 0.00 | 84 | 1014.0 |
| 20260905132828 | 84 | 142 | 1.0 | 6.0 | 0.00 | 0.00 | 0.00 | 85 | 1013.8 |
| 20260905132328 | 83 | 348 | 1.0 | 4.0 | 0.00 | 0.00 | 0.00 | 85 | 1013.7 |
| 20260905132058 | 83 | 15 | 2.0 | 5.0 | 0.00 | 0.00 | 0.00 | 85 | 1013.7 |
| 20260905131603 | 83 | 33 | 1.0 | 5.0 | 0.00 | 0.00 | 0.00 | 85 | 1013.8 |
| 20260905131552 | 83 | 333 | 2.0 | 5.0 | 0.00 | 0.00 | 0.00 | 85 | 1013.6 |
| 20260905131036 | 83 | 221 | 2.0 | 4.0 | 0.00 | 0.00 | 0.00 | 85 | 1013.7 |
| 20260905130310 | 83 | 209 | 1.0 | 4.0 | 0.00 | 0.00 | 0.00 | 85 | 1013.4 |
| 20260905130057 | 83 | 184 | 1.0 | 5.0 | 0.00 | 0.00 | 0.00 | 85 | 1013.7 |
| 20260905130043 | 83 | 333 | 1.0 | 5.0 | 0.00 | 0.00 | 0.00 | 86 | 1013.5 |
| 20260905125306 | 83 | 216 | 1.0 | 5.0 | 0.00 | 0.00 | 0.00 | 86 | 1013.3 |
| 20260905124808 | 82 | 2 | 1.0 | 4.0 | 0.00 | 0.00 | 0.00 | 87 | 1013.4 |
| 20260905124604 | 82 | 107 | 1.0 | 4.0 | 0.00 | 0.00 | 0.00 | 87 | 1013.6 |
| 20260905124532 | 82 | 290 | 2.0 | 4.0 | 0.00 | 0.00 | 0.00 | 88 | 1013.2 |
| 20260905123806 | 82 | 94 | 1.0 | 4.0 | 0.00 | 0.00 | 0.00 | 88 | 1013.2 |
| 20260905123304 | 82 | 48 | 1.0 | 4.0 | 0.00 | 0.00 | 0.00 | 88 | 1013.2 |
| 20260905123108 | 81 | 146 | 0.0 | 4.0 | 0.00 | 0.00 | 0.00 | 87 | 1013.3 |
| 20260905123022 | 81 | 338 | 1.0 | 4.0 | 0.00 | 0.00 | 0.00 | 88 | 1013.1 |
| 20260905122306 | 81 | 103 | 1.0 | 6.0 | 0.00 | 0.00 | 0.00 | 88 | 1013.0 |
| 20260905121801 | 82 | 343 | 1.0 | 6.0 | 0.00 | 0.00 | 0.00 | 88 | 1013.0 |
| 20260905121603 | 81 | 94 | 1.0 | 6.0 | 0.00 | 0.00 | 0.00 | 87 | 1013.0 |
| 20260905121303 | 81 | 190 | 1.0 | 3.0 | 0.00 | 0.00 | 0.00 | 88 | 1012.9 |
| 20260905120815 | 82 | 203 | 2.0 | 3.0 | 0.00 | 0.00 | 0.00 | 88 | 1012.9 |
| 20260905120302 | 81 | 228 | 0.0 | 3.0 | 0.00 | 0.00 | 0.00 | 88 | 1013.0 |
| 20260905120104 | 81 | 296 | 0.0 | 4.0 | 0.00 | 0.00 | 0.00 | 87 | 1013.2 |
| 20260905115802 | 82 | 247 | 1.0 | 4.0 | 0.00 | 0.00 | 0.00 | 88 | 1012.9 |
| 20260905115523 | 82 | 212 | 1.0 | 4.0 | 0.00 | 0.00 | 0.00 | 87 | 1012.8 |
| 20260905114802 | 82 | 16 | 1.0 | 3.0 | 0.00 | 0.00 | 0.00 | 87 | 1012.7 |
| 20260905114611 | 81 | 103 | 1.0 | 4.0 | 0.00 | 0.00 | 0.00 | 87 | 1013.0 |
| 20260905114302 | 82 | 33 | 2.0 | 3.0 | 0.00 | 0.00 | 0.00 | 87 | 1012.8 |
| 20260905114023 | 82 | 257 | 1.0 | 2.0 | 0.00 | 0.00 | 0.00 | 87 | 1012.8 |
| 20260905113302 | 82 | 80 | 1.0 | 2.0 | 0.00 | 0.00 | 0.00 | 87 | 1012.8 |
| 20260905113109 | 81 | 137 | 0.0 | 3.0 | 0.00 | 0.00 | 0.00 | 87 | 1013.0 |
| 20260905112802 | 82 | 185 | 0.0 | 3.0 | 0.00 | 0.00 | 0.00 | 87 | 1012.8 |
| 20260905112305 | 82 | 280 | 1.0 | 5.0 | 0.00 | 0.00 | 0.00 | 87 | 1012.8 |
| 20260905111802 | 82 | 25 | 2.0 | 5.0 | 0.00 | 0.00 | 0.00 | 87 | 1012.8 |
| 20260905111615 | 82 | 0 | 1.0 | 5.0 | 0.00 | 0.00 | 0.00 | 87 | 1013.0 |
| 20260905111302 | 82 | 259 | 1.0 | 5.0 | 0.00 | 0.00 | 0.00 | 87 | 1012.7 |
| 20260905110815 | 82 | 313 | 1.0 | 5.0 | 0.00 | 0.00 | 0.00 | 87 | 1012.7 |
| 20260905110302 | 82 | 205 | 1.0 | 5.0 | 0.00 | 0.00 | 0.00 | 87 | 1012.6 |
| 20260905110104 | 82 | 243 | 0.0 | 4.0 | 0.00 | 0.00 | 0.00 | 87 | 1012.8 |
| 20260905105802 | 82 | 224 | 1.0 | 5.0 | 0.00 | 0.00 | 0.00 | 87 | 1012.6 |
| 20260905105300 | 82 | 34 | 1.0 | 4.0 | 0.00 | 0.00 | 0.00 | 87 | 1012.8 |
| 20260905105032 | 82 | 96 | 1.0 | 5.0 | 0.00 | 0.00 | 0.00 | 87 | 1012.7 |
| 20260905104558 | 82 | 307 | 0.0 | 5.0 | 0.00 | 0.00 | 0.00 | 86 | 1013.0 |
| 20260905104301 | 82 | 320 | 2.0 | 5.0 | 0.00 | 0.00 | 0.00 | 87 | 1012.7 |
| 20260905103801 | 82 | 190 | 2.0 | 4.0 | 0.00 | 0.00 | 0.00 | 87 | 1012.8 |
| 20260905103301 | 82 | 118 | 1.0 | 3.0 | 0.00 | 0.00 | 0.00 | 87 | 1012.8 |
| 20260905103052 | 82 | 114 | 0.0 | 6.0 | 0.00 | 0.00 | 0.00 | 86 | 1013.1 |
| 20260905102801 | 82 | 288 | 1.0 | 6.0 | 0.00 | 0.00 | 0.00 | 87 | 1012.9 |
| 20260905102300 | 82 | 311 | 2.0 | 6.0 | 0.00 | 0.00 | 0.00 | 87 | 1012.8 |
| 20260905101801 | 83 | 139 | 1.0 | 4.0 | 0.00 | 0.00 | 0.00 | 87 | 1012.9 |
| 20260905101552 | 82 | 11 | 1.0 | 4.0 | 0.00 | 0.00 | 0.00 | 86 | 1013.1 |
| 20260905101303 | 83 | 281 | 1.0 | 4.0 | 0.00 | 0.00 | 0.00 | 87 | 1012.8 |
| 20260905100802 | 83 | 227 | 2.0 | 4.0 | 0.00 | 0.00 | 0.00 | 87 | 1012.8 |
| 20260905100302 | 83 | 342 | 1.0 | 4.0 | 0.00 | 0.00 | 0.00 | 86 | 1012.8 |
| 20260905100107 | 82 | 313 | 1.0 | 4.0 | 0.00 | 0.00 | 0.00 | 86 | 1013.1 |
| 20260905095802 | 83 | 240 | 1.0 | 4.0 | 0.00 | 0.00 | 0.00 | 86 | 1012.9 |
| 20260905095300 | 83 | 244 | 2.0 | 5.0 | 0.00 | 0.00 | 0.00 | 86 | 1012.9 |
| 20260905094801 | 83 | 154 | 2.0 | 5.0 | 0.00 | 0.00 | 0.00 | 86 | 1012.9 |
| 20260905094605 | 82 | 202 | 1.0 | 4.0 | 0.00 | 0.00 | 0.00 | 86 | 1013.1 |
| 20260905094301 | 83 | 169 | 2.0 | 5.0 | 0.00 | 0.00 | 0.00 | 86 | 1012.9 |
| 20260905093801 | 83 | 20 | 2.0 | 4.0 | 0.00 | 0.00 | 0.00 | 86 | 1012.9 |
| 20260905093301 | 83 | 23 | 2.0 | 5.0 | 0.00 | 0.00 | 0.00 | 86 | 1013.0 |
| 20260905093055 | 83 | 185 | 2.0 | 7.0 | 0.00 | 0.00 | 0.00 | 85 | 1013.1 |
| 20260905093034 | 83 | 118 | 2.0 | 6.0 | 0.00 | 0.00 | 0.00 | 86 | 1012.9 |
| 20260905092748 | 83 | 83 | 2.0 | 6.0 | 0.00 | 0.00 | 0.00 | 86 | 1012.9 |
| 20260905091801 | 83 | 228 | 2.0 | 6.0 | 0.00 | 0.00 | 0.00 | 86 | 1013.0 |
| 20260905091609 | 83 | 60 | 2.0 | 5.0 | 0.00 | 0.00 | 0.00 | 85 | 1013.2 |
| 20260905091302 | 83 | 358 | 1.0 | 6.0 | 0.00 | 0.00 | 0.00 | 85 | 1012.9 |
| 20260905090802 | 83 | 203 | 3.0 | 4.0 | 0.00 | 0.00 | 0.00 | 85 | 1013.0 |
| 20260905090301 | 83 | 253 | 1.0 | 7.0 | 0.00 | 0.00 | 0.00 | 85 | 1013.1 |
| 20260905085801 | 83 | 187 | 2.0 | 7.0 | 0.00 | 0.00 | 0.00 | 85 | 1013.1 |
| 20260905085305 | 83 | 296 | 1.0 | 4.0 | 0.00 | 0.00 | 0.00 | 85 | 1013.0 |
| 20260905084800 | 83 | 117 | 3.0 | 5.0 | 0.00 | 0.00 | 0.00 | 85 | 1013.1 |
| 20260905084611 | 83 | 106 | 2.0 | 6.0 | 0.00 | 0.00 | 0.00 | 84 | 1013.2 |
| 20260905084525 | 83 | 243 | 2.0 | 5.0 | 0.00 | 0.00 | 0.00 | 85 | 1013.0 |
| 20260905083802 | 83 | 272 | 1.0 | 5.0 | 0.00 | 0.00 | 0.00 | 85 | 1013.0 |
| 20260905083302 | 84 | 341 | 1.0 | 7.0 | 0.00 | 0.00 | 0.00 | 85 | 1013.1 |
| 20260905083101 | 83 | 286 | 1.0 | 7.0 | 0.00 | 0.00 | 0.00 | 84 | 1013.4 |
| 20260905082802 | 84 | 295 | 3.0 | 7.0 | 0.00 | 0.00 | 0.00 | 85 | 1013.2 |
| 20260905082300 | 84 | 301 | 2.0 | 6.0 | 0.00 | 0.00 | 0.00 | 84 | 1013.1 |
| 20260905081801 | 84 | 348 | 2.0 | 6.0 | 0.00 | 0.00 | 0.00 | 84 | 1013.2 |
| 20260905081616 | 83 | 314 | 1.0 | 7.0 | 0.00 | 0.00 | 0.00 | 84 | 1013.4 |
| 20260905081521 | 84 | 272 | 2.0 | 8.0 | 0.00 | 0.00 | 0.00 | 84 | 1013.2 |
| 20260905080801 | 84 | 163 | 3.0 | 8.0 | 0.00 | 0.00 | 0.00 | 84 | 1013.2 |
| 20260905080527 | 84 | 46 | 3.0 | 5.0 | 0.00 | 0.00 | 0.00 | 84 | 1013.1 |
| 20260905080057 | 83 | 333 | 1.0 | 5.0 | 0.00 | 0.00 | 0.00 | 84 | 1013.3 |
| 20260905075801 | 84 | 51 | 1.0 | 6.0 | 0.00 | 0.00 | 0.00 | 84 | 1013.2 |
| 20260905075301 | 84 | 331 | 2.0 | 7.0 | 0.00 | 0.00 | 0.00 | 84 | 1013.2 |
| 20260905074801 | 84 | 272 | 2.0 | 7.0 | 0.00 | 0.00 | 0.00 | 84 | 1013.3 |
| 20260905074603 | 84 | 206 | 2.0 | 7.0 | 0.00 | 0.00 | 0.00 | 83 | 1013.6 |
| 20260905074301 | 84 | 185 | 2.0 | 7.0 | 0.00 | 0.00 | 0.00 | 84 | 1013.3 |
| 20260905074021 | 84 | 195 | 1.0 | 6.0 | 0.00 | 0.00 | 0.00 | 84 | 1013.4 |
| 20260905073425 | 84 | 12 | 2.0 | 6.0 | 0.00 | 0.00 | 0.00 | 83 | 1013.8 |
| 20260905073302 | 84 | 224 | 2.0 | 6.0 | 0.00 | 0.00 | 0.00 | 84 | 1013.5 |
| 20260905072801 | 84 | 176 | 2.0 | 5.0 | 0.00 | 0.00 | 0.00 | 84 | 1013.4 |
| 20260905072301 | 84 | 234 | 2.0 | 5.0 | 0.00 | 0.00 | 0.00 | 84 | 1013.6 |
| 20260905071800 | 84 | 141 | 2.0 | 5.0 | 0.00 | 0.00 | 0.00 | 84 | 1013.8 |
| 20260905071719 | 84 | 269 | 2.0 | 5.0 | 0.00 | 0.00 | 0.00 | 84 | 1013.9 |
| 20260905071303 | 84 | 13 | 1.0 | 5.0 | 0.00 | 0.00 | 0.00 | 84 | 1013.7 |
| 20260905070751 | 84 | 157 | 0.0 | 8.0 | 0.00 | 0.00 | 0.00 | 84 | 1013.8 |
| 20260905070246 | 85 | 53 | 3.0 | 8.0 | 0.00 | 0.00 | 0.00 | 84 | 1013.9 |
| 20260905065745 | 85 | 263 | 2.0 | 6.0 | 0.00 | 0.00 | 0.00 | 84 | 1013.9 |
| 20260905065239 | 85 | 207 | 2.0 | 6.0 | 0.00 | 0.00 | 0.00 | 84 | 1013.7 |
| 20260905064735 | 85 | 234 | 2.0 | 6.0 | 0.00 | 0.00 | 0.00 | 84 | 1013.8 |
| 20260905064603 | 84 | 105 | 2.0 | 5.0 | 0.00 | 0.00 | 0.00 | 83 | 1014.0 |
| 20260905064234 | 85 | 184 | 1.0 | 6.0 | 0.00 | 0.00 | 0.00 | 83 | 1013.7 |
| 20260905063733 | 85 | 199 | 2.0 | 7.0 | 0.00 | 0.00 | 0.00 | 83 | 1013.7 |
| 20260905063229 | 85 | 84 | 2.0 | 7.0 | 0.00 | 0.00 | 0.00 | 83 | 1013.8 |
| 20260905063114 | 84 | 301 | 2.0 | 7.0 | 0.00 | 0.00 | 0.00 | 83 | 1013.9 |
| 20260905062734 | 85 | 155 | 2.0 | 6.0 | 0.00 | 0.00 | 0.00 | 83 | 1013.6 |
| 20260905062234 | 85 | 233 | 2.0 | 9.0 | 0.00 | 0.00 | 0.00 | 83 | 1013.6 |
| 20260905061733 | 85 | 320 | 4.0 | 9.0 | 0.00 | 0.00 | 0.00 | 83 | 1013.7 |
| 20260905061611 | 84 | 37 | 1.0 | 8.0 | 0.00 | 0.00 | 0.00 | 82 | 1013.8 |
| 20260905061451 | 85 | 92 | 4.0 | 8.0 | 0.00 | 0.00 | 0.00 | 82 | 1013.7 |
| 20260905060731 | 85 | 358 | 2.0 | 7.0 | 0.00 | 0.00 | 0.00 | 82 | 1013.8 |
| 20260905060231 | 85 | 169 | 3.0 | 7.0 | 0.00 | 0.00 | 0.00 | 82 | 1013.6 |
| 20260905060053 | 84 | 9 | 3.0 | 7.0 | 0.00 | 0.00 | 0.00 | 81 | 1013.9 |
| 20260905055730 | 85 | 357 | 2.0 | 7.0 | 0.00 | 0.00 | 0.00 | 82 | 1013.6 |
| 20260905055230 | 85 | 327 | 2.0 | 7.0 | 0.00 | 0.00 | 0.00 | 82 | 1013.5 |
| 20260905054728 | 85 | 191 | 2.0 | 7.0 | 0.00 | 0.00 | 0.00 | 82 | 1013.5 |
| 20260905054603 | 84 | 243 | 2.0 | 6.0 | 0.00 | 0.00 | 0.00 | 81 | 1013.7 |
| 20260905054230 | 85 | 184 | 2.0 | 7.0 | 0.00 | 0.00 | 0.00 | 81 | 1013.5 |
| 20260905053730 | 85 | 164 | 2.0 | 6.0 | 0.00 | 0.00 | 0.00 | 81 | 1013.6 |
| 20260905053451 | 85 | 239 | 3.0 | 9.0 | 0.00 | 0.00 | 0.00 | 81 | 1013.6 |
| 20260905053059 | 85 | 181 | 1.0 | 11.0 | 0.00 | 0.00 | 0.00 | 80 | 1013.8 |
| 20260905052712 | 85 | 330 | 3.0 | 9.0 | 0.00 | 0.00 | 0.00 | 81 | 1013.6 |
| 20260905052209 | 85 | 46 | 3.0 | 9.0 | 0.00 | 0.00 | 0.00 | 81 | 1013.7 |
| 20260905051706 | 85 | 165 | 3.0 | 10.0 | 0.00 | 0.00 | 0.00 | 81 | 1013.6 |
| 20260905051556 | 85 | 44 | 3.0 | 9.0 | 0.00 | 0.00 | 0.00 | 80 | 1013.9 |
| 20260905051203 | 85 | 106 | 3.0 | 10.0 | 0.00 | 0.00 | 0.00 | 81 | 1013.7 |
| 20260905050703 | 85 | 307 | 2.0 | 9.0 | 0.00 | 0.00 | 0.00 | 80 | 1013.7 |
| 20260905050148 | 85 | 183 | 4.0 | 10.0 | 0.00 | 0.00 | 0.00 | 80 | 1013.7 |
| 20260905050109 | 85 | 104 | 3.0 | 10.0 | 0.00 | 0.00 | 0.00 | 80 | 1013.9 |
| 20260905045642 | 85 | 73 | 2.0 | 10.0 | 0.00 | 0.00 | 0.00 | 80 | 1013.9 |
| 20260905045138 | 85 | 210 | 2.0 | 8.0 | 0.00 | 0.00 | 0.00 | 80 | 1013.8 |
| 20260905044634 | 86 | 266 | 2.0 | 7.0 | 0.00 | 0.00 | 0.00 | 80 | 1013.8 |
| 20260905044553 | 85 | 104 | 1.0 | 6.0 | 0.00 | 0.00 | 0.00 | 79 | 1013.9 |
| 20260905044357 | 86 | 30 | 3.0 | 5.0 | 0.00 | 0.00 | 0.00 | 79 | 1013.9 |
| 20260905043631 | 86 | 40 | 2.0 | 8.0 | 0.00 | 0.00 | 0.00 | 79 | 1013.9 |
| 20260905043129 | 86 | 230 | 3.0 | 8.0 | 0.00 | 0.00 | 0.00 | 79 | 1014.0 |
| 20260905043118 | 85 | 81 | 2.0 | 8.0 | 0.00 | 0.00 | 0.00 | 78 | 1014.2 |
| 20260905042630 | 86 | 108 | 3.0 | 9.0 | 0.00 | 0.00 | 0.00 | 78 | 1013.7 |
| 20260905042131 | 86 | 326 | 4.0 | 9.0 | 0.00 | 0.00 | 0.00 | 78 | 1013.7 |
| 20260905041629 | 86 | 259 | 3.0 | 8.0 | 0.00 | 0.00 | 0.00 | 78 | 1013.8 |
| 20260905041604 | 86 | 319 | 3.0 | 8.0 | 0.00 | 0.00 | 0.00 | 77 | 1014.1 |
| 20260905041356 | 86 | 301 | 4.0 | 8.0 | 0.00 | 0.00 | 0.00 | 78 | 1013.9 |
| 20260905040858 | 86 | 253 | 3.0 | 8.0 | 0.00 | 0.00 | 0.00 | 78 | 1014.0 |
| 20260905040129 | 86 | 229 | 3.0 | 7.0 | 0.00 | 0.00 | 0.00 | 77 | 1014.0 |
| 20260905040121 | 86 | 333 | 3.0 | 8.0 | 0.00 | 0.00 | 0.00 | 77 | 1014.2 |
| 20260905035629 | 86 | 68 | 2.0 | 7.0 | 0.00 | 0.00 | 0.00 | 77 | 1013.9 |
| 20260905035128 | 86 | 290 | 4.0 | 7.0 | 0.00 | 0.00 | 0.00 | 77 | 1013.8 |
| 20260905034628 | 86 | 222 | 4.0 | 7.0 | 0.00 | 0.00 | 0.00 | 77 | 1013.9 |
| 20260905034600 | 86 | 296 | 4.0 | 7.0 | 0.00 | 0.00 | 0.00 | 76 | 1014.2 |
| 20260905034352 | 86 | 20 | 3.0 | 7.0 | 0.00 | 0.00 | 0.00 | 77 | 1014.1 |
| 20260905033621 | 87 | 200 | 2.0 | 8.0 | 0.00 | 0.00 | 0.00 | 76 | 1014.0 |
| 20260905033117 | 87 | 110 | 3.0 | 8.0 | 0.00 | 0.00 | 0.00 | 76 | 1013.8 |
| 20260905033103 | 86 | 66 | 2.0 | 8.0 | 0.00 | 0.00 | 0.00 | 75 | 1014.0 |
| 20260905032838 | 87 | 231 | 4.0 | 9.0 | 0.00 | 0.00 | 0.00 | 76 | 1013.8 |
| 20260905032108 | 87 | 10 | 4.0 | 9.0 | 0.00 | 0.00 | 0.00 | 75 | 1013.9 |
| 20260905031603 | 87 | 303 | 3.0 | 6.0 | 0.00 | 0.00 | 0.00 | 75 | 1013.9 |
| 20260905031600 | 86 | 260 | 2.0 | 8.0 | 0.00 | 0.00 | 0.00 | 74 | 1014.1 |
| 20260905031103 | 87 | 125 | 2.0 | 8.0 | 0.00 | 0.00 | 0.00 | 74 | 1013.8 |
| 20260905030824 | 87 | 220 | 3.0 | 8.0 | 0.00 | 0.00 | 0.00 | 74 | 1013.7 |
| 20260905030101 | 87 | 197 | 3.0 | 8.0 | 0.00 | 0.00 | 0.00 | 73 | 1013.8 |
| 20260905025603 | 87 | 286 | 3.0 | 8.0 | 0.00 | 0.00 | 0.00 | 73 | 1013.7 |
| 20260905025102 | 87 | 346 | 3.0 | 9.0 | 0.00 | 0.00 | 0.00 | 73 | 1013.7 |
| 20260905024602 | 87 | 356 | 3.0 | 10.0 | 0.00 | 0.00 | 0.00 | 72 | 1013.8 |
| 20260905024334 | 87 | 6 | 4.0 | 9.0 | 0.00 | 0.00 | 0.00 | 72 | 1013.5 |
| 20260905023602 | 88 | 33 | 3.0 | 7.0 | 0.00 | 0.00 | 0.00 | 72 | 1013.5 |
| 20260905023101 | 87 | 231 | 2.0 | 8.0 | 0.00 | 0.00 | 0.00 | 71 | 1013.8 |
| 20260905022600 | 88 | 328 | 2.0 | 10.0 | 0.00 | 0.00 | 0.00 | 71 | 1013.5 |
| 20260905022100 | 88 | 196 | 4.0 | 10.0 | 0.00 | 0.00 | 0.00 | 71 | 1013.3 |
| 20260905021601 | 88 | 345 | 4.0 | 10.0 | 0.00 | 0.00 | 0.00 | 71 | 1013.1 |
| 20260905021552 | 88 | 56 | 4.0 | 10.0 | 0.00 | 0.00 | 0.00 | 70 | 1013.2 |
| 20260905021100 | 88 | 37 | 4.0 | 9.0 | 0.00 | 0.00 | 0.00 | 71 | 1012.9 |
| 20260905020616 | 88 | 345 | 3.0 | 9.0 | 0.00 | 0.00 | 0.00 | 71 | 1012.7 |
| 20260905020104 | 89 | 56 | 2.0 | 9.0 | 0.00 | 0.00 | 0.00 | 70 | 1012.6 |
| 20260905020058 | 88 | 177 | 3.0 | 13.0 | 0.00 | 0.00 | 0.00 | 70 | 1012.8 |
| 20260905015602 | 89 | 117 | 3.0 | 9.0 | 0.00 | 0.00 | 0.00 | 70 | 1012.5 |
| 20260905015102 | 89 | 301 | 4.0 | 11.0 | 0.00 | 0.00 | 0.00 | 69 | 1012.4 |
| 20260905014600 | 89 | 255 | 4.0 | 11.0 | 0.00 | 0.00 | 0.00 | 69 | 1012.4 |
| 20260905014557 | 89 | 271 | 4.0 | 12.0 | 0.00 | 0.00 | 0.00 | 68 | 1012.5 |
| 20260905014323 | 89 | 307 | 5.0 | 9.0 | 0.00 | 0.00 | 0.00 | 68 | 1012.6 |
| 20260905013601 | 90 | 212 | 4.0 | 8.0 | 0.00 | 0.00 | 0.00 | 67 | 1012.6 |
| 20260905013103 | 89 | 209 | 4.0 | 11.0 | 0.00 | 0.00 | 0.00 | 66 | 1012.6 |
| 20260905013101 | 90 | 276 | 4.0 | 12.0 | 0.00 | 0.00 | 0.00 | 66 | 1012.5 |
| 20260905013051 | 90 | 124 | 6.0 | 12.0 | 0.00 | 0.00 | 0.00 | 66 | 1012.2 |
| 20260905012101 | 90 | 134 | 2.0 | 8.0 | 0.00 | 0.00 | 0.00 | 66 | 1012.1 |
| 20260905011600 | 90 | 347 | 4.0 | 11.0 | 0.00 | 0.00 | 0.00 | 65 | 1012.1 |
| 20260905011557 | 90 | 76 | 4.0 | 10.0 | 0.00 | 0.00 | 0.00 | 65 | 1012.3 |
| 20260905011100 | 90 | 206 | 5.0 | 13.0 | 0.00 | 0.00 | 0.00 | 65 | 1012.0 |
| 20260905010603 | 91 | 171 | 7.0 | 13.0 | 0.00 | 0.00 | 0.00 | 65 | 1011.8 |
| 20260905010339 | 91 | 67 | 3.0 | 10.0 | 0.00 | 0.00 | 0.00 | 64 | 1011.7 |
| 20260905010108 | 90 | 273 | 3.0 | 9.0 | 0.00 | 0.00 | 0.00 | 64 | 1011.9 |
| 20260905005615 | 91 | 126 | 4.0 | 10.0 | 0.00 | 0.00 | 0.00 | 64 | 1011.6 |
| 20260905005103 | 91 | 61 | 3.0 | 9.0 | 0.00 | 0.00 | 0.00 | 63 | 1011.8 |
| 20260905004613 | 91 | 291 | 3.0 | 10.0 | 0.00 | 0.00 | 0.00 | 63 | 1012.1 |
| 20260905004602 | 92 | 205 | 4.0 | 11.0 | 0.00 | 0.00 | 0.00 | 63 | 1011.8 |
| 20260905004101 | 92 | 226 | 6.0 | 11.0 | 0.00 | 0.00 | 0.00 | 62 | 1011.8 |
| 20260905003826 | 92 | 179 | 5.0 | 11.0 | 0.00 | 0.00 | 0.00 | 62 | 1011.7 |
| 20260905003102 | 92 | 70 | 5.0 | 11.0 | 0.00 | 0.00 | 0.00 | 62 | 1011.6 |
| 20260905002602 | 93 | 181 | 4.0 | 9.0 | 0.00 | 0.00 | 0.00 | 60 | 1011.6 |
| 20260905002102 | 93 | 30 | 4.0 | 11.0 | 0.00 | 0.00 | 0.00 | 60 | 1011.6 |
| 20260905001825 | 94 | 270 | 4.0 | 11.0 | 0.00 | 0.00 | 0.00 | 59 | 1011.6 |
| 20260905001558 | 93 | 272 | 5.0 | 15.0 | 0.00 | 0.00 | 0.00 | 59 | 1011.8 |
| 20260905001336 | 94 | 287 | 5.0 | 14.0 | 0.00 | 0.00 | 0.00 | 58 | 1011.3 |
| 20260905001320 | 94 | 167 | 6.0 | 14.0 | 0.00 | 0.00 | 0.00 | 58 | 1011.7 |
| 20260905000550 | 95 | 217 | 5.0 | 9.0 | 0.00 | 0.00 | 0.00 | 58 | 1011.3 |
| 20260905000125 | 94 | 281 | 4.0 | 11.0 | 0.00 | 0.00 | 0.00 | 57 | 1011.6 |
| 20260904235827 | 95 | 41 | 4.0 | 12.0 | 0.00 | 0.00 | 0.00 | 57 | 1011.2 |
| 20260904235102 | 95 | 268 | 5.0 | 12.0 | 0.00 | 0.00 | 0.00 | 57 | 1011.1 |
| 20260904234601 | 96 | 162 | 5.0 | 12.0 | 0.00 | 0.00 | 0.00 | 55 | 1011.1 |
| 20260904234101 | 96 | 203 | 5.0 | 10.0 | 0.00 | 0.00 | 0.00 | 54 | 1011.0 |
| 20260904233602 | 96 | 49 | 6.0 | 12.0 | 0.00 | 0.00 | 0.00 | 53 | 1010.9 |
| 20260904233108 | 96 | 212 | 6.0 | 14.0 | 0.00 | 0.00 | 0.00 | 52 | 1011.2 |
| 20260904233101 | 96 | 64 | 6.0 | 15.0 | 0.00 | 0.00 | 0.00 | 52 | 1010.9 |
| 20260904232601 | 97 | 172 | 5.0 | 15.0 | 0.00 | 0.00 | 0.00 | 52 | 1010.8 |
| 20260904232101 | 98 | 193 | 5.0 | 13.0 | 0.00 | 0.00 | 0.00 | 51 | 1010.7 |
| 20260904232057 | 98 | 162 | 6.0 | 13.0 | 0.00 | 0.00 | 0.00 | 50 | 1010.8 |
| 20260904231600 | 98 | 218 | 5.0 | 12.0 | 0.00 | 0.00 | 0.00 | 49 | 1011.1 |
| 20260904231100 | 99 | 278 | 4.0 | 8.0 | 0.00 | 0.00 | 0.00 | 50 | 1010.7 |
| 20260904230827 | 98 | 337 | 4.0 | 11.0 | 0.00 | 0.00 | 0.00 | 50 | 1010.7 |
| 20260904230056 | 98 | 226 | 5.0 | 12.0 | 0.00 | 0.00 | 0.00 | 49 | 1011.1 |
| 20260904225601 | 99 | 192 | 5.0 | 10.0 | 0.00 | 0.00 | 0.00 | 49 | 1010.8 |
| 20260904225101 | 98 | 109 | 6.0 | 10.0 | 0.00 | 0.00 | 0.00 | 50 | 1010.8 |
| 20260904224604 | 99 | 354 | 4.0 | 10.0 | 0.00 | 0.00 | 0.00 | 48 | 1011.0 |
| 20260904224601 | 99 | 279 | 4.0 | 9.0 | 0.00 | 0.00 | 0.00 | 49 | 1010.8 |
| 20260904224327 | 99 | 261 | 5.0 | 12.0 | 0.00 | 0.00 | 0.00 | 49 | 1010.7 |
| 20260904223615 | 99 | 358 | 4.0 | 13.0 | 0.00 | 0.00 | 0.00 | 50 | 1010.7 |
| 20260904223338 | 98 | 323 | 5.0 | 13.0 | 0.00 | 0.00 | 0.00 | 49 | 1010.6 |
| 20260904223106 | 98 | 44 | 4.0 | 13.0 | 0.00 | 0.00 | 0.00 | 49 | 1010.9 |
| 20260904222602 | 99 | 15 | 4.0 | 12.0 | 0.00 | 0.00 | 0.00 | 49 | 1010.6 |
| 20260904222102 | 99 | 272 | 6.0 | 13.0 | 0.00 | 0.00 | 0.00 | 49 | 1010.7 |
| 20260904221602 | 100 | 227 | 5.0 | 13.0 | 0.00 | 0.00 | 0.00 | 48 | 1010.7 |
| 20260904221555 | 99 | 143 | 5.0 | 14.0 | 0.00 | 0.00 | 0.00 | 48 | 1010.9 |
| 20260904221057 | 100 | 225 | 7.0 | 14.0 | 0.00 | 0.00 | 0.00 | 47 | 1010.6 |
| 20260904220553 | 101 | 139 | 6.0 | 14.0 | 0.00 | 0.00 | 0.00 | 45 | 1010.6 |
| 20260904220116 | 101 | 75 | 2.0 | 8.0 | 0.00 | 0.00 | 0.00 | 39 | 1010.8 |
| 20260904220053 | 102 | 103 | 3.0 | 8.0 | 0.00 | 0.00 | 0.00 | 41 | 1010.5 |
| 20260904215547 | 102 | 258 | 4.0 | 12.0 | 0.00 | 0.00 | 0.00 | 39 | 1010.4 |
| 20260904215044 | 102 | 220 | 3.0 | 12.0 | 0.00 | 0.00 | 0.00 | 40 | 1010.5 |
| 20260904214809 | 102 | 63 | 2.0 | 10.0 | 0.00 | 0.00 | 0.00 | 38 | 1010.5 |
| 20260904214600 | 101 | 7 | 2.0 | 9.0 | 0.00 | 0.00 | 0.00 | 38 | 1010.8 |
| 20260904214035 | 102 | 343 | 4.0 | 11.0 | 0.00 | 0.00 | 0.00 | 38 | 1010.6 |
| 20260904213529 | 102 | 150 | 3.0 | 11.0 | 0.00 | 0.00 | 0.00 | 39 | 1010.5 |
| 20260904213055 | 102 | 343 | 2.0 | 9.0 | 0.00 | 0.00 | 0.00 | 38 | 1010.8 |
| 20260904213029 | 102 | 22 | 2.0 | 9.0 | 0.00 | 0.00 | 0.00 | 38 | 1010.5 |
| 20260904212528 | 102 | 247 | 6.0 | 9.0 | 0.00 | 0.00 | 0.00 | 37 | 1010.7 |
| 20260904212029 | 102 | 176 | 3.0 | 7.0 | 0.00 | 0.00 | 0.00 | 38 | 1010.7 |
| 20260904211608 | 102 | 243 | 3.0 | 8.0 | 0.00 | 0.00 | 0.00 | 38 | 1011.1 |
| 20260904211527 | 102 | 338 | 3.0 | 7.0 | 0.00 | 0.00 | 0.00 | 38 | 1010.7 |
| 20260904211022 | 102 | 211 | 4.0 | 8.0 | 0.00 | 0.00 | 0.00 | 38 | 1010.7 |
| 20260904210518 | 102 | 212 | 3.0 | 8.0 | 0.00 | 0.00 | 0.00 | 40 | 1010.7 |
| 20260904210104 | 101 | 228 | 2.0 | 10.0 | 0.00 | 0.00 | 0.00 | 40 | 1011.1 |
| 20260904210017 | 102 | 33 | 3.0 | 11.0 | 0.00 | 0.00 | 0.00 | 41 | 1010.9 |
| 20260904205517 | 101 | 176 | 6.0 | 11.0 | 0.00 | 0.00 | 0.00 | 42 | 1010.8 |
| 20260904205012 | 101 | 340 | 5.0 | 9.0 | 0.00 | 0.00 | 0.00 | 42 | 1011.0 |
| 20260904204555 | 100 | 108 | 6.0 | 11.0 | 0.00 | 0.00 | 0.00 | 42 | 1011.1 |
| 20260904204508 | 101 | 103 | 6.0 | 9.0 | 0.00 | 0.00 | 0.00 | 43 | 1010.9 |
| 20260904204005 | 101 | 241 | 5.0 | 8.0 | 0.00 | 0.00 | 0.00 | 44 | 1010.9 |
| 20260904203949 | 101 | 11 | 4.0 | 10.0 | 0.00 | 0.00 | 0.00 | 43 | 1010.9 |
| 20260904203055 | 101 | 176 | 6.0 | 10.0 | 0.00 | 0.00 | 0.00 | 43 | 1011.2 |
| 20260904203002 | 102 | 252 | 6.0 | 10.0 | 0.00 | 0.00 | 0.00 | 43 | 1010.9 |
| 20260904202502 | 102 | 338 | 4.0 | 8.0 | 0.00 | 0.00 | 0.00 | 44 | 1011.0 |
| 20260904202002 | 103 | 128 | 4.0 | 8.0 | 0.00 | 0.00 | 0.00 | 43 | 1011.1 |
| 20260904201551 | 102 | 188 | 2.0 | 8.0 | 0.00 | 0.00 | 0.00 | 45 | 1011.4 |
| 20260904201502 | 102 | 211 | 2.0 | 8.0 | 0.00 | 0.00 | 0.00 | 45 | 1011.0 |
| 20260904201002 | 102 | 87 | 1.0 | 10.0 | 0.00 | 0.00 | 0.00 | 44 | 1011.0 |
| 20260904200502 | 101 | 334 | 4.0 | 11.0 | 0.00 | 0.00 | 0.00 | 45 | 1011.2 |
| 20260904200003 | 101 | 22 | 7.0 | 11.0 | 0.00 | 0.00 | 0.00 | 44 | 1011.2 |
| 20260904195503 | 103 | 193 | 4.0 | 7.0 | 0.00 | 0.00 | 0.00 | 43 | 1011.1 |
| 20260904195002 | 103 | 315 | 3.0 | 9.0 | 0.00 | 0.00 | 0.00 | 44 | 1011.3 |
| 20260904194603 | 102 | 41 | 2.0 | 9.0 | 0.00 | 0.00 | 0.00 | 44 | 1011.6 |
| 20260904194502 | 103 | 352 | 3.0 | 9.0 | 0.00 | 0.00 | 0.00 | 45 | 1011.2 |
| 20260904194000 | 102 | 271 | 3.0 | 9.0 | 0.00 | 0.00 | 0.00 | 43 | 1011.4 |
| 20260904193726 | 102 | 233 | 4.0 | 9.0 | 0.00 | 0.00 | 0.00 | 44 | 1011.7 |
| 20260904193110 | 101 | 258 | 2.0 | 7.0 | 0.00 | 0.00 | 0.00 | 44 | 1011.8 |
| 20260904193001 | 102 | 266 | 2.0 | 8.0 | 0.00 | 0.00 | 0.00 | 44 | 1011.6 |
| 20260904192501 | 102 | 70 | 4.0 | 8.0 | 0.00 | 0.00 | 0.00 | 43 | 1011.6 |
| 20260904192001 | 103 | 44 | 4.0 | 8.0 | 0.00 | 0.00 | 0.00 | 43 | 1011.7 |
| 20260904191554 | 103 | 25 | 2.0 | 10.0 | 0.00 | 0.00 | 0.00 | 44 | 1011.9 |
| 20260904191500 | 103 | 191 | 3.0 | 11.0 | 0.00 | 0.00 | 0.00 | 44 | 1011.7 |
| 20260904191001 | 102 | 275 | 5.0 | 11.0 | 0.00 | 0.00 | 0.00 | 44 | 1011.8 |
| 20260904190500 | 103 | 243 | 2.0 | 7.0 | 0.00 | 0.00 | 0.00 | 44 | 1011.9 |
| 20260904190004 | 102 | 67 | 3.0 | 9.0 | 0.00 | 0.00 | 0.00 | 44 | 1012.1 |
| 20260904185502 | 102 | 136 | 4.0 | 9.0 | 0.00 | 0.00 | 0.00 | 45 | 1012.2 |
| 20260904185003 | 102 | 8 | 2.0 | 10.0 | 0.00 | 0.00 | 0.00 | 45 | 1012.1 |
| 20260904184559 | 100 | 190 | 4.0 | 10.0 | 0.00 | 0.00 | 0.00 | 44 | 1012.5 |
| 20260904184502 | 101 | 327 | 4.0 | 10.0 | 0.00 | 0.00 | 0.00 | 46 | 1012.2 |
| 20260904184226 | 101 | 333 | 4.0 | 7.0 | 0.00 | 0.00 | 0.00 | 46 | 1012.4 |
| 20260904183502 | 101 | 317 | 3.0 | 15.0 | 0.00 | 0.00 | 0.00 | 44 | 1012.5 |
| 20260904183120 | 100 | 288 | 4.0 | 15.0 | 0.00 | 0.00 | 0.00 | 45 | 1012.8 |
| 20260904183002 | 101 | 326 | 4.0 | 15.0 | 0.00 | 0.00 | 0.00 | 45 | 1012.6 |
| 20260904182503 | 101 | 285 | 2.0 | 9.0 | 0.00 | 0.00 | 0.00 | 45 | 1012.7 |
| 20260904182003 | 100 | 191 | 4.0 | 9.0 | 0.00 | 0.00 | 0.00 | 46 | 1012.7 |
| 20260904181603 | 99 | 0 | 3.0 | 12.0 | 0.00 | 0.00 | 0.00 | 49 | 1013.0 |
| 20260904181502 | 100 | 53 | 4.0 | 10.0 | 0.00 | 0.00 | 0.00 | 47 | 1012.9 |
| 20260904181001 | 100 | 235 | 4.0 | 10.0 | 0.00 | 0.00 | 0.00 | 45 | 1013.0 |
| 20260904180731 | 99 | 264 | 3.0 | 11.0 | 0.00 | 0.00 | 0.00 | 47 | 1013.0 |
| 20260904180119 | 99 | 112 | 4.0 | 11.0 | 0.00 | 0.00 | 0.00 | 46 | 1013.2 |
| 20260904180001 | 99 | 126 | 4.0 | 11.0 | 0.00 | 0.00 | 0.00 | 47 | 1013.0 |
| 20260904175502 | 99 | 34 | 2.0 | 8.0 | 0.00 | 0.00 | 0.00 | 50 | 1013.1 |
| 20260904175001 | 98 | 307 | 5.0 | 8.0 | 0.00 | 0.00 | 0.00 | 49 | 1013.3 |
| 20260904174609 | 98 | 33 | 3.0 | 10.0 | 0.00 | 0.00 | 0.00 | 49 | 1013.6 |
| 20260904174501 | 98 | 200 | 4.0 | 10.0 | 0.00 | 0.00 | 0.00 | 49 | 1013.4 |
| 20260904174000 | 98 | 221 | 5.0 | 10.0 | 0.00 | 0.00 | 0.00 | 49 | 1013.4 |
| 20260904173501 | 98 | 44 | 6.0 | 9.0 | 0.00 | 0.00 | 0.00 | 49 | 1013.4 |
| 20260904173102 | 97 | 316 | 3.0 | 11.0 | 0.00 | 0.00 | 0.00 | 50 | 1013.7 |
| 20260904173003 | 98 | 40 | 2.0 | 11.0 | 0.00 | 0.00 | 0.00 | 50 | 1013.6 |
| 20260904172738 | 97 | 302 | 5.0 | 11.0 | 0.00 | 0.00 | 0.00 | 52 | 1013.5 |
| 20260904172002 | 96 | 228 | 4.0 | 9.0 | 0.00 | 0.00 | 0.00 | 52 | 1013.6 |
| 20260904171556 | 96 | 321 | 3.0 | 8.0 | 0.00 | 0.00 | 0.00 | 52 | 1013.9 |
| 20260904171502 | 97 | 15 | 3.0 | 8.0 | 0.00 | 0.00 | 0.00 | 53 | 1013.8 |
| 20260904171001 | 96 | 345 | 3.0 | 10.0 | 0.00 | 0.00 | 0.00 | 54 | 1013.8 |
| 20260904170500 | 96 | 209 | 5.0 | 10.0 | 0.00 | 0.00 | 0.00 | 55 | 1013.9 |
| 20260904170058 | 95 | 180 | 3.0 | 10.0 | 0.00 | 0.00 | 0.00 | 55 | 1014.1 |
| 20260904170002 | 95 | 164 | 4.0 | 10.0 | 0.00 | 0.00 | 0.00 | 56 | 1013.9 |
| 20260904165501 | 95 | 295 | 5.0 | 12.0 | 0.00 | 0.00 | 0.00 | 55 | 1014.1 |